Torna al catalogo

FENGYUN 1C DEB

AttivoSSO
NORAD 29789·DEBRIS·🇨🇳 China

Lanciato May 10, 1999 da Taiyuan Satellite Launch Center

Loading…

Prossimi Passaggi (prossime 24 ore)

TLE

AggiornatoSource: Space-Track

Epoca: Sep 13, 2026, 17:38 UTC

1 29789U 99025CF  26256.73480110  .00000854  00000-0  98857-3 0  9992
2 29789  99.4651  73.1978 0295593 304.1930  66.6085 13.54926519967119

Traccia FENGYUN 1C DEB in tempo reale con AllMySat

Download on the App Store